"Pseudo-MPEC" for 019001

Created 2016 Aug 12 13:30:05 UT using Find_Orb

Astrometry:
     019001  tC2016 08 11.95754 21 37 08.01 -22 24 01.7          14.3 R      Y00
     019001  tC2016 08 11.95859 21 37 31.62 -22 20 42.3          14.2 R      Y00
     019001  tC2016 08 11.96011 21 38 05.91 -22 15 51.5          14.3 R      Y00
     024002s  C2016 08 12.07720 22 28 01.31 -13 08 30.6          14.0 R      Y00
     024002s  C2016 08 12.07743 22 28 08.39 -13 06 56.3          14.1 R      Y00
     024002s  C2016 08 12.07765 22 28 15.08 -13 05 26.0          14.5 R      Y00

Station data:
(Y00) SONEAR Observatory, Oliveira (S20.71513 W44.78496)  Brazil.   Observers
    C. Jacques, E. Pimentel, J. Barros.  Measurer C. Jacques.  0.28-m f/2.2
    astrograph + CCD.

Orbital elements:  019001
   Perigee 2016 Aug 12.251971 +/- 0.0188 TT =  6:02:50 (JD 2457612.751971)
Epoch 2016 Aug 12.0 TT = JDT 2457612.5                        Find_Orb
M 250.58302 +/- 12                  (J2000 equatorial)
n 434.24396641 +/- 81.5             Peri.  127.89374 +/- 4.7
a 37277.5742 +/- 4662               Node   351.99216 +/- 0.16
e   0.7351076 +/- 0.033             Incl.   38.19586 +/- 0.21
P1193.78m/0.829d           H 31.4   G  0.15   U 15.7  
q 9874.54403 +/- 2353    Q 64680.6045 +/- 6620
From 6 observations 2016 Aug. 11-12 (2.9 hr); mean residual 1".648
Residuals in arcseconds: 
160811 Y00 .952+ .570+    160811 Y00 .807- .612-    160812 Y00 .440+ .036+    
160811 Y00 .233- .011-    160812 Y00 3.42+ 1.51+    160812 Y00 3.74- 1.46-    

Ephemerides (geocentric):
Date (UTC) HH   RA              Dec         delta   r     elong  mag " sig PA
---- -- -- --  ------------   ------------  ------ ------ -----  --- ---- ---
2016 08 12 00  21 33 14.544   -20 41 09.29   57488 1.0137 174.1 Sha   911  81
2016 08 12 01  21 52 50.514   -17 36 05.67   53128 1.0137 173.4 14.7  838  78
2016 08 12 02  22 15 38.790   -13 43 14.10   47521 1.0136 168.4 14.6  772  72
2016 08 12 03  22 44 26.791   -08 26 44.68   40441 1.0135 160.2 14.6  302  80
2016 08 12 04  23 26 23.567   -00 18 27.55   31522 1.0135 147.4 14.4 2391  52
2016 08 12 05  00 51 00.744   +15 35 10.48   20264 1.0133 121.4 14.2 309'  56
2016 08 12 06  08 06 05.131   +31 14 12.26    9888 1.0132  25.0 20??  47d 113
2016 08 12 07  14 10 55.598   -27 12 12.33   19558 1.0132  80.3 15.6  44d 118
2016 08 12 08  16 14 15.271   -36 44 47.40   30956 1.0133 107.8 15.5  26d 101
2016 08 12 09  17 22 40.561   -38 11 11.33   39993 1.0134 121.3 15.7  20d  90
2016 08 12 10  18 08 13.187   -37 45 25.66   47166 1.0134 130.2 15.8  17d  83
2016 08 12 11  18 42 01.873   -36 42 47.63   52849 1.0135 136.9 15.8 968'  78
2016 08 12 12  19 09 03.217   -35 24 55.61   57275 1.0135 142.4 15.9 916'  74
2016 08 12 13  19 31 50.730   -33 59 05.83   60593 1.0136 147.2 15.8 885'  71
2016 08 12 14  19 51 53.677   -32 27 38.53   62898 1.0136 151.6 15.8 870'  68
2016 08 12 15  20 10 09.402   -30 50 49.08   64251 1.0136 155.7 15.7 866'  66
2016 08 12 16  20 27 18.541   -29 07 45.04   64685 1.0136 159.6 15.6 875'  63
2016 08 12 17  20 43 53.214   -27 16 41.79   64209 1.0136 163.5 15.5 894'  61
2016 08 12 18  21 00 22.321   -25 14 57.07   62813 1.0136 167.3 15.3 928'  60
2016 08 12 19  21 17 16.048   -22 58 26.77   60462 1.0136 171.2 15.1 979'  58
2016 08 12 20  21 35 11.367   -20 20 52.21   57095 1.0135 174.3 Sha   17d  56
2016 08 12 21  21 55 01.372   -17 11 48.16   52615 1.0135 173.7 14.6  19d  55
2016 08 12 22  22 18 15.620   -13 12 23.79   46869 1.0135 168.5 14.6  22d  53
2016 08 12 23  22 47 56.003   -07 43 46.10   39619 1.0134 160.0 14.5  27d  52
2016 08 13 00  23 32 05.030   +00 52 11.49   30484 1.0133 146.4 14.4  36d  52
2016 08 13 01  01 06 36.643   +18 13 35.44   18973 1.0132 117.7 14.2  59d  56
2016 08 13 02  09 17 28.809   +22 55 22.03    9977 1.0131   8.9 28?? 163d 121
2016 08 13 03  14 28 28.261   -29 11 53.14   20841 1.0131  83.8 15.6 113d 116
2016 08 13 04  16 23 10.814   -37 05 34.74   31986 1.0132 108.8 15.6 100d 100
2016 08 13 05  17 28 22.232   -38 11 47.07   40810 1.0132 121.7 15.7 107d  90